Regional Weather Roundup
Issued by NWS Sterling, VA

Home | Current Version | Previous Version | Graphics & Text | Print | Product List | Glossary On
Versions: 1 2 3 4 5 6 7 8 9 10 11 12 13 14 15 16 17 18 19 20 21 22 23 24 25 26 27 28 29 30 31 32 33 34 35 36 37 38 39 40 41 42 43 44 45 46 47 48 49 50
771
ASUS41 KLWX 250911
RWRLWX

REGIONAL WEATHER ROUNDUP
NATIONAL WEATHER SERVICE BALTIMORE MD/WASHINGTON DC
500 AM EDT MON SEP 25 2017

Note: "FAIR" indicates few or no clouds below 12,000 feet
with no significant weather and/or obstructions to visibility.
 TC=TEMPERATURE CELSIUS

 * =Non NWS site. Station does not report precipitation (e.g. rain,
    snow, etc.), thunder, or fog.

DCZ001-MDZ009-015-VAZ040>042-051-053>054-251000-
WASHINGTON METRO

CITY           SKY/WX    TMP DP  RH WIND       PRES   REMARKS
WASHINGTON NAT PTCLDY    72  69  90 CALM      30.03R
DULLES         PTCLDY    67  66  97 NW5       30.03S
ANDREWS AFB    CLEAR     65  64  95 CALM      30.02S
FT BELVOIR     CLEAR     64  63  97 CALM      30.02S
QUANTICO       CLEAR     68  67  96 NW6       30.03S
COLLEGE PARK*  CLEAR     64  63  97 CALM      30.02S
LEESBURG*      CLEAR     64  64 100 CALM      30.05S
MANASSAS*      CLEAR     61  59  94 CALM      30.04R FOG
GAITHERSBURG*  CLEAR     63  63 100 CALM      30.05S

$$

MDZ006>007-011-014-251000-
BALTIMORE METRO

CITY           SKY/WX    TMP DP  RH WIND       PRES   REMARKS
BWI AIRPORT    CLEAR     65  65 100 CALM      30.02S
MD SCIENCE CTR   N/A     75  67  76 MISG      30.03R
MARTIN STATE   CLEAR     68  68 100 CALM      30.04R
ANNAPOLIS      CLEAR     73  73 100 CALM      30.01S
FORT MEADE*    CLEAR     61  59  94 CALM      30.05S

$$

MDZ012-015-019>023-251000-
MARYLAND EASTERN SHORE

CITY           SKY/WX    TMP DP  RH WIND       PRES   REMARKS
OCEAN CITY     CLEAR     62  62 100 NE3       30.02S
SALISBURY      CLEAR     62  61  96 CALM      30.01S
CAMBRIDGE*     PTCLDY    63  63 100 CALM      30.01S
EASTON*        CLEAR     65  63  92 CALM      30.05S

$$

MDZ017>025-251000-
SOUTHERN MARYLAND

CITY           SKY/WX    TMP DP  RH WIND       PRES   REMARKS
PATUXENT RIVER CLEAR     64  64 100 W3        30.01R
ST INIGOES     NOT AVBL
LEONARDTOWN*   CLEAR     64  64 100 CALM      30.03S

$$

MDZ003>005-251000-
NORTH CENTRAL MARYLAND

CITY           SKY/WX    TMP DP  RH WIND       PRES   REMARKS
FREDERICK*     FOG       63  63 100 CALM      30.08R VSB 1/4
HAGERSTOWN APT CLEAR     69  66  90 CALM      30.06S
WESTMINSTER*   CLEAR     68  64  88 CALM      30.06S

$$

MDZ501>502-251000-
WESTERN MARYLAND

CITY           SKY/WX    TMP DP  RH WIND       PRES   REMARKS
OAKLAND*       CLEAR     63  59  88 SE7       30.14S
CUMBERLAND*    PTCLDY    64  64 100 CALM      30.12S

$$

VAZ025>031-251000-
SHENANDOAH VALLEY

CITY           SKY/WX    TMP DP  RH WIND       PRES   REMARKS
WINCHESTER*    CLEAR     61  59  94 CALM      30.06S
FRONT ROYAL*   CLEAR     63  63 100 CALM      30.06S
LURAY*         CLEAR     61  61 100 CALM      30.08R
NEW MARKET*    CLEAR     57  56  96 CALM      30.07F
STAUNTON*      FOG       55  54  98 CALM      30.11S VSB 3/4
WAYNESBORO*    CLEAR     60  60 100 CALM      30.10S

$$

WVZ021-048>050-054>055-251000-
EASTERN WEST VIRGINIA PANHANDLE

CITY           SKY/WX    TMP DP  RH WIND       PRES   REMARKS
MARTINSBURG    CLEAR     62  61  96 CALM      30.05S FOG
PETERSBURG*    PTCLDY    60  59  99 CALM      30.10S FOG

$$

VAZ036>039-050-251000-
CENTRAL FOOTHILLS

CITY           SKY/WX    TMP DP  RH WIND       PRES   REMARKS
CHARLOTTESVILL CLEAR     65  63  93 CALM      30.04S
CULPEPER*      CLEAR     64  64 100 CALM      30.05R FOG
ORANGE*        CLEAR     63  61  94 CALM      30.04S FOG
GORDONSVILLE*  CLEAR     63  63 100 CALM      30.03S
WARRENTON*     FOG       58  55  90 CALM      30.03S VSB 3/4

$$

VAZ055>057-251000-
NORTH AND CENTRAL PIEDMONT

CITY           SKY/WX    TMP DP  RH WIND       PRES   REMARKS
FREDERICKSBRG* CLEAR     65  65 100 CALM      30.02S
STAFFORD*      FOG       61  61 100 CALM      30.07R VSB 1/2

$$

NCZ024-NYZ072-PAZ021-071-VAZ022-071-251000-
OTHER REGIONAL OBSERVATIONS

CITY           SKY/WX    TMP DP  RH WIND       PRES   REMARKS
NEW YORK CITY  CLEAR     73  65  75 CALM      30.05R
PHILADELPHIA   PTCLDY    70  67  90 CALM      30.02S
PITTSBURGH     MOCLDY    66  63  90 CALM      30.08S
ROANOKE        CLEAR     64  61  90 CALM      30.09S
RICHMOND       CLEAR     66  63  90 N5        30.01R
RALEIGH        CLOUDY    66  61  84 NE8       29.99F

$$

ANZ530>537-251000-
MARINE OBSERVATIONS

STATION/POSITION TIME  TEMP    WIND        PRES
                       AIR SEA DIR/SP/G
                 (UTC) (F)     (DEG/KT/KT) (MB)
THOMAS PT LIGHT  0900   74 77   10/  2/  2   N/A
BALT KEY BRIDGE  0848   73      20/  4/  4 1016.5R
COVE POINT       0848   76      70/  4/  5 1016.9R
LEWISETTA        0848   77 78   80/  7/  8 1016.0R
SOLOMONS ISLAND  0848   71 77  340/  3/  3 1015.8R
PINEY POINT      0848           50/  2/  3   N/A

$$





USA.gov is the U.S. government's official web portal to all federal, state and local government web resources and services.